[[{"header":{"parameterUnit":"m.s-1","parameterCategory":1,"la1":30.2991,"la2":30.254,"lo1":-89.0895,"lo2":-89.0444,"dy":0.0017,"dx":0.0017,"nx":28,"ny":28,"refTime":"2026-02-15T09:00:00:Z","depth":0,"parameterNumber":2,"parameterNumberName":"U-component_of_WINDS"},"data":[0,0,0,0,0,0,0,0,0,0,0,0,0,0,0,0,0,0,0,0,0,0,0,0,0,0,0,0,0,0,0,0,0,0,0,0,0,0,0,0,0,0,0,0,0,0,0,0,0,0,0,0,0,0,0,0,0,0,-4.491,-4.4911,0,-4.5016,-4.5017,-4.5018,-4.4979,-4.4976,-4.4974,-4.4971,-4.5076,-4.5081,-4.5086,0,0,0,0,0,0,0,0,0,0,0,0,0,-4.467,-4.4675,-4.491,-4.4911,-4.4913,-4.5016,-4.5017,-4.5019,-4.4979,-4.4976,-4.4973,-4.497,-4.5075,-4.5081,-4.5087,0,0,0,0,0,0,0,0,0,0,0,0,0,-4.4775,-4.4676,-4.491,-4.4905,-4.4906,-4.5016,-4.5017,-4.5019,-4.498,-4.4976,-4.4972,-4.4969,-4.5073,-4.508,-4.5087,-4.5207,0,0,-4.5111,-4.5114,0,0,0,0,0,0,0,0,-4.4769,-4.4784,-4.4905,-4.4906,-4.4907,-4.498,-4.4971,-4.5082,-4.4981,-4.4952,-4.4971,-4.4967,-4.5047,-4.5056,-4.5084,-4.5211,-4.5216,-4.5111,-4.5116,-4.5119,-4.5121,0,0,0,0,0,0,0,-4.4762,-4.4779,-4.4952,-4.4906,-4.4908,-4.4897,-4.4908,-4.4992,-4.5018,-4.4954,-4.4951,-4.4964,-4.5047,-4.5077,-4.5086,-4.5217,-4.5111,-4.5118,-4.5122,-4.5125,-4.5449,-4.5453,0,0,0,0,0,0,-4.4755,-4.4773,-4.4948,-4.4955,-4.4828,-4.4904,-4.4917,-4.496,-4.5017,-4.5022,-4.4967,-4.4962,-4.5066,-4.5078,-4.509,-4.5233,-4.5119,-4.5126,-4.513,-4.5445,-4.545,-4.5454,0,0,0,0,0,0,-4.475,-4.4771,-4.4944,-4.4863,-4.4885,-4.4912,-4.4962,-4.4964,-4.4994,-4.5028,-4.5032,-4.4994,-4.5063,-4.5079,-4.5178,-4.5236,-4.5129,-4.5136,-4.544,-4.5446,-4.5452,-4.5521,0,0,0,0,0,0,-4.4743,-4.4769,-4.4815,-4.4865,-4.4889,-4.5032,-4.4965,-4.4969,-4.5008,-4.5002,-4.5053,-4.5058,-4.5062,-4.5167,-4.5186,-4.5245,-4.5142,-4.5435,-4.5443,-4.545,-4.5514,-4.5529,-4.5542,0,0,0,0,0,-4.4734,-4.4829,-4.4817,-4.4839,-4.4947,-4.5035,-4.5049,-4.5052,-4.5013,-4.5059,-4.5081,-4.5056,-4.5228,-4.5178,-4.5198,-4.526,-4.5431,-4.5441,-4.5449,-4.5507,-4.5526,-4.5541,0,0,0,0,0,0,-4.4783,-4.4835,-4.4823,-4.4937,-4.4982,-4.5028,-4.5086,-4.5072,-4.5128,-4.512,-4.5121,-4.5133,-4.5235,-4.5258,-4.5201,-4.5379,-4.5323,-4.5337,-4.536,-4.5378,-4.5392,-4.5383,-4.5148,0,0,0,0,0,-4.4807,-4.4875,-4.4917,-4.5013,-4.5037,-4.5058,-4.5096,-4.5096,-4.5142,-4.516,-4.5189,-4.5233,-4.5297,-4.5339,-4.54,-4.5518,-4.5528,-4.5571,-4.5585,-4.5596,-4.5607,-4.5672,-4.5691,-4.5484,-4.5484,-4.5484,0,0,-4.4857,-4.4895,-4.4937,-4.5024,-4.5059,-4.5128,-4.5074,-4.5149,-4.5201,-4.5171,-4.5266,-4.529,-4.534,-4.5449,-4.5498,-4.5471,-4.5667,-4.5608,-4.5616,-4.5621,-4.5683,-4.5703,-4.572,-4.549,-4.5489,-4.5488,0,0,-4.4984,-4.502,-4.5104,-4.5141,-4.5195,-4.5209,-4.523,-4.5279,-4.5293,-4.539,-4.5369,-4.543,-4.554,-4.5577,-4.561,-4.5754,-4.5734,-4.5774,-4.5846,-4.5909,-4.5925,-4.594,-4.5991,-4.6009,-4.5786,-4.5786,-4.5786,0,-4.5039,-4.5144,-4.5149,-4.5227,-4.5266,-4.5245,-4.533,-4.5365,-4.5436,-4.5463,-4.5432,-4.5571,-4.5603,-4.5721,-4.5756,-4.5784,-4.5807,-4.5767,-4.5923,-4.5938,-4.5951,-4.6,-4.6019,-4.579,-4.579,-4.5789,-4.5789,0,-4.5209,-4.5282,-4.5344,-4.5415,-4.5461,-4.5542,-4.5559,-4.5605,-4.5601,-4.5618,-4.5717,-4.5755,-4.5824,-4.5852,-4.5848,-4.597,-4.5951,-4.5922,-4.5865,-4.5975,-4.6021,-4.6039,-4.5797,-4.5795,-4.5794,-4.5793,0,0,-4.5366,-4.5441,-4.5464,-4.5496,-4.5556,-4.5612,-4.5693,-4.5762,-4.5801,-4.5852,-4.5919,-4.6014,-4.5988,-4.6025,-4.6026,-4.6081,-4.6193,-4.6045,-4.6046,-4.607,-4.6329,-4.635,-4.6371,-4.6181,-4.6184,-4.6187,-4.6325,0,-4.5497,-4.564,-4.5648,-4.5777,-4.5845,-4.5827,-4.5897,-4.5941,-4.596,-4.602,-4.604,-4.6107,-4.6068,-4.6091,-4.6145,-4.6168,-4.6244,-4.6158,-4.6242,-4.6245,-4.6229,-4.6395,-4.6417,-4.6545,-4.6343,-4.6346,-4.6348,0,-4.5668,-4.5726,-4.5862,-4.5914,-4.5943,-4.6006,-4.607,-4.6128,-4.6178,-4.6188,-4.6232,-4.6225,-4.6307,-4.625,-4.6363,-4.6304,-4.6339,-4.6356,-4.6361,-4.6367,-4.6302,-4.6405,-4.6586,-4.6604,-4.6376,-4.6374,-4.6372,0,-4.5768,-4.5881,-4.5977,-4.6006,-4.6068,-4.6113,-4.6141,-4.6188,-4.6229,-4.6286,-4.6312,-4.6377,-4.6412,-4.6462,-4.6473,-4.643,-4.6586,-4.6529,-4.6596,-4.6595,-4.6627,-4.6625,-4.6815,-4.6653,-4.6652,-4.6652,-4.6652,0,-4.5913,-4.5997,-4.6023,-4.6082,-4.6176,-4.6185,-4.6277,-4.6302,-4.6344,-4.6407,-4.6396,-4.6455,-4.6467,-4.6528,-4.6537,-4.663,-4.6646,-4.6655,-4.6656,-4.6656,-4.6654,-4.6677,-4.6668,-4.6657,-4.6656,-4.6655,-4.6654,0,-4.604,-4.6061,-4.6165,-4.6217,-4.6232,-4.6299,-4.6343,-4.64,-4.6419,-4.6499,-4.6518,-4.6547,-4.6619,-4.6636,-4.6721,-4.6727,-4.6836,-4.6829,-4.682,-4.6819,-4.6884,-4.6877,-4.7094,-4.7123,-4.6943,-4.6945,-4.6946,0,-4.613,-4.6194,-4.6254,-4.6297,-4.6328,-4.6396,-4.6439,-4.6451,-4.6495,-4.6559,-4.6608,-4.6679,-4.6737,-4.6853,-4.6881,-4.6946,-4.694,-4.7012,-4.695,-4.6947,-4.694,-4.6936,-4.6942,-4.7023,-4.7025,-4.7026,-4.7028,0,-4.6287,-4.6295,-4.6358,-4.6426,-4.6478,-4.6531,-4.6582,-4.6617,-4.6636,-4.6687,-4.6762,-4.6807,-4.6895,-4.6966,-4.7033,-4.706,-4.7047,-4.7048,-4.7066,-4.7065,-4.7056,-4.7061,-4.6851,-4.7042,-4.704,-4.7039,-4.7039,-4.7038,-4.6397,-4.6454,-4.6506,-4.6577,-4.6617,-4.6666,-4.6722,-4.6749,-4.6812,-4.6886,-4.6889,-4.697,-4.702,-4.7108,-4.714,-4.7204,-4.7181,-4.7208,-4.7215,-4.7221,-4.7227,-4.7048,-4.7216,-4.7216,-4.7215,-4.7215,-4.7215,0,-4.6553,-4.6587,-4.6652,-4.6725,-4.6781,-4.6766,-4.6822,-4.6869,-4.6942,-4.699,-4.7048,-4.7134,-4.7204,-4.7238,-4.7307,-4.7351,-4.7347,-4.7369,-4.7365,-4.7371,-4.7243,-4.722,-4.7371,-4.7371,-4.7371,-4.7371,-4.7371,-4.7371,-4.6641,-4.6737,-4.6751,-4.6867,-4.6899,-4.698,-4.7014,-4.7058,-4.7097,-4.7194,-4.7253,-4.7276,-4.7318,-4.7391,-4.7454,-4.7462,-4.7487,-4.7512,-4.7517,-4.7396,-4.738,-4.7365,-4.7343,-4.7518,-4.7518,-4.764,-4.7641,-4.7642]},{"header":{"parameterUnit":"m.s-1","parameterCategory":1,"la1":30.2991,"la2":30.254,"lo1":-89.0895,"lo2":-89.0444,"dy":0.0017,"dx":0.0017,"nx":28,"ny":28,"refTime":"2026-02-15T09:00:00:Z","depth":0,"parameterNumber":3,"parameterNumberName":"V-component_of_WINDS"},"data":[0,0,0,0,0,0,0,0,0,0,0,0,0,0,0,0,0,0,0,0,0,0,0,0,0,0,0,0,0,0,0,0,0,0,0,0,0,0,0,0,0,0,0,0,0,0,0,0,0,0,0,0,0,0,0,0,0,0,1.5545,1.5544,0,1.547,1.5469,1.5468,1.5437,1.5437,1.5437,1.5438,1.5353,1.5351,1.5348,0,0,0,0,0,0,0,0,0,0,0,0,0,1.5658,1.5656,1.5545,1.5544,1.5543,1.547,1.5469,1.5468,1.5437,1.5437,1.5437,1.5438,1.5354,1.5351,1.5348,0,0,0,0,0,0,0,0,0,0,0,0,0,1.5598,1.5655,1.5545,1.5519,1.5516,1.547,1.5469,1.5467,1.5437,1.5437,1.5437,1.5438,1.5355,1.5351,1.5348,1.5319,0,0,1.5337,1.5335,0,0,0,0,0,0,0,0,1.5601,1.5594,1.5524,1.5521,1.5518,1.5463,1.5477,1.5417,1.5437,1.5467,1.5438,1.5438,1.5389,1.5383,1.5368,1.5316,1.5312,1.5336,1.5334,1.5333,1.5331,0,0,0,0,0,0,0,1.5606,1.5597,1.5515,1.5523,1.5519,1.551,1.5501,1.5466,1.5427,1.5464,1.5462,1.5454,1.5387,1.5371,1.5365,1.5311,1.5336,1.5333,1.5331,1.5329,1.5232,1.5232,0,0,0,0,0,0,1.5615,1.5601,1.5517,1.5513,1.5561,1.5507,1.5498,1.548,1.5427,1.542,1.5454,1.5453,1.5377,1.537,1.5362,1.5326,1.5333,1.5329,1.5327,1.5233,1.5232,1.5232,0,0,0,0,0,0,1.5617,1.5608,1.552,1.5556,1.5544,1.5505,1.5485,1.5479,1.5463,1.5419,1.5412,1.5445,1.5377,1.5367,1.5331,1.5323,1.5327,1.5324,1.5233,1.5233,1.5232,1.5254,0,0,0,0,0,0,1.5621,1.5609,1.5599,1.5556,1.5543,1.5492,1.5485,1.5477,1.5457,1.5455,1.5409,1.5401,1.5377,1.5337,1.5327,1.5318,1.5321,1.5234,1.5233,1.5232,1.5253,1.5254,1.5254,0,0,0,0,0,1.5625,1.5606,1.5599,1.5589,1.553,1.5492,1.5484,1.5458,1.5457,1.5446,1.5418,1.5403,1.5326,1.5333,1.5322,1.5312,1.5234,1.5233,1.5232,1.5253,1.5254,1.5254,0,0,0,0,0,0,1.5646,1.56,1.5591,1.5559,1.553,1.5487,1.5472,1.5459,1.5428,1.5427,1.5394,1.5383,1.535,1.5327,1.5336,1.5282,1.5278,1.5275,1.5298,1.5298,1.5299,1.5304,1.5318,0,0,0,0,0,1.5648,1.5623,1.5583,1.5558,1.5545,1.5511,1.5493,1.5476,1.5444,1.5431,1.5401,1.5368,1.5337,1.5316,1.5284,1.525,1.524,1.5238,1.5238,1.5239,1.5236,1.5217,1.5215,1.5229,1.5229,1.5229,0,0,1.5649,1.5621,1.5607,1.5562,1.5537,1.5511,1.5501,1.5473,1.5452,1.5426,1.539,1.5367,1.5329,1.5294,1.5277,1.5274,1.523,1.5238,1.5238,1.5235,1.5216,1.5214,1.5213,1.5228,1.5228,1.5228,0,0,1.5639,1.5616,1.5593,1.5569,1.5534,1.5512,1.5506,1.5466,1.545,1.5415,1.5395,1.5369,1.5315,1.5289,1.5269,1.5251,1.5235,1.5241,1.5242,1.5224,1.5223,1.5222,1.5215,1.5213,1.5239,1.5239,1.5239,0,1.5645,1.5606,1.5582,1.5556,1.5536,1.5514,1.549,1.5468,1.5423,1.5409,1.5407,1.534,1.5312,1.5271,1.5267,1.5251,1.5243,1.5246,1.5226,1.5224,1.5223,1.5216,1.5214,1.524,1.524,1.524,1.5239,0,1.5615,1.5589,1.5574,1.5535,1.5513,1.5488,1.5459,1.544,1.5425,1.5403,1.5367,1.5334,1.5295,1.5284,1.5268,1.5241,1.524,1.5232,1.5228,1.5223,1.5216,1.5213,1.5241,1.5241,1.524,1.524,0,0,1.5615,1.5564,1.5559,1.5541,1.5501,1.5479,1.5453,1.5418,1.5402,1.5372,1.5349,1.5305,1.5298,1.5275,1.5255,1.5239,1.5227,1.5233,1.5232,1.5233,1.5195,1.5201,1.5199,1.5218,1.5217,1.5217,1.5199,0,1.5599,1.5554,1.5532,1.5495,1.547,1.5449,1.5426,1.5398,1.5378,1.5352,1.5327,1.5297,1.529,1.5277,1.526,1.5233,1.5219,1.5234,1.5194,1.5193,1.5204,1.5195,1.5201,1.5186,1.5196,1.5195,1.5195,0,1.5574,1.5547,1.5509,1.5473,1.5462,1.5442,1.5409,1.5385,1.5353,1.5339,1.5314,1.5296,1.5266,1.5265,1.5223,1.5234,1.5216,1.52,1.5199,1.5194,1.5193,1.5189,1.518,1.5178,1.519,1.5191,1.5191,0,1.5578,1.5532,1.5503,1.5488,1.5446,1.5432,1.5414,1.5382,1.5363,1.5333,1.532,1.5287,1.5268,1.5242,1.5215,1.5217,1.5175,1.5172,1.5162,1.5162,1.5153,1.5154,1.5141,1.5143,1.5143,1.5143,1.5143,0,1.5562,1.5539,1.5505,1.5487,1.5461,1.5435,1.5409,1.5389,1.5361,1.5338,1.5317,1.5295,1.5261,1.5235,1.5213,1.5182,1.5173,1.516,1.5154,1.5161,1.5163,1.5149,1.5149,1.5142,1.5142,1.5142,1.5142,0,1.5561,1.5537,1.5505,1.5468,1.5458,1.5441,1.5408,1.539,1.5369,1.534,1.5331,1.5297,1.5265,1.5236,1.5193,1.5178,1.5146,1.5139,1.5158,1.5155,1.5146,1.5147,1.5123,1.5118,1.5124,1.5124,1.5124,0,1.5553,1.5535,1.5498,1.5482,1.5465,1.5439,1.542,1.5395,1.5376,1.5339,1.5324,1.5291,1.5264,1.5213,1.5183,1.515,1.5142,1.5136,1.5137,1.5145,1.5142,1.5143,1.5141,1.5136,1.5136,1.5136,1.5136,0,1.554,1.5529,1.5505,1.5476,1.5455,1.543,1.5405,1.5392,1.5361,1.5341,1.531,1.5289,1.5246,1.5213,1.5177,1.5156,1.514,1.5136,1.5132,1.5139,1.5151,1.5144,1.5158,1.5137,1.5137,1.5137,1.5137,1.5136,1.5534,1.5518,1.549,1.5463,1.5442,1.5419,1.5401,1.5378,1.5353,1.5318,1.5303,1.5272,1.524,1.519,1.5169,1.5143,1.5139,1.5133,1.5132,1.513,1.5132,1.5156,1.5136,1.5136,1.5136,1.5136,1.5136,0,1.5521,1.5502,1.5478,1.5444,1.5423,1.5414,1.5385,1.5368,1.5341,1.5314,1.5288,1.5252,1.5221,1.5189,1.5156,1.5141,1.5133,1.5133,1.5133,1.5128,1.5137,1.5144,1.514,1.514,1.514,1.514,1.514,1.514,1.5511,1.5484,1.547,1.5432,1.5413,1.5383,1.5368,1.5346,1.5325,1.5287,1.5262,1.5243,1.5213,1.5178,1.5149,1.514,1.5128,1.513,1.512,1.5128,1.5128,1.5128,1.5134,1.5128,1.5128,1.5114,1.5113,1.5113]}]]